Regional Weather Roundup
Issued by NWS Northern Indiana

Home | Current Version | Previous Version | Graphics & Text | Print | Product List | Glossary On
Versions: 1 2 3 4 5 6 7 8 9 10 11 12 13 14 15 16 17 18 19 20 21 22 23 24 25 26 27 28 29 30 31 32 33 34 35 36 37 38 39 40 41 42 43 44 45 46 47 48 49 50
000
ASUS43 KIWX 241210
RWRIWX

KIWX WEATHER ROUNDUP
NATIONAL WEATHER SERVICE NORTHERN INDIANA
800 AM EDT FRI MAR 24 2017

NOTE: "FAIR" INDICATES FEW OR NO CLOUDS BELOW 12,000 FEET WITH NO
SIGNIFICANT WEATHER AND/OR OBSTRUCTIONS TO VISIBILITY.

* THESE STATIONS ARE NOT UNDER NWS QUALITY CONTROL. THEY ALSO MAY NOT
  REPORT WEATHER SUCH AS PRECIPITATION OR FOG.

INZ001>027-241300-
NORTHERN INDIANA

CITY           SKY/WX    TMP DP  RH WIND       PRES   REMARKS
GARY*          MOCLDY    54  41  62 S14G26    29.96R
VALPARAISO     PTCLDY    51  43  74 S13       29.99R
6HR MIN TEMP:  47; 6HR MAX TEMP:  51;

MICHIGAN CITY* PTCLDY    54  43  66 S17G28    29.98R
LAPORTE*       PTCLDY    48  41  75 S8        30.00R
6HR MIN TEMP:  44; 6HR MAX TEMP:  48;

KNOX*          PTCLDY    50  25  37 S14       30.00R
SOUTH BEND     CLOUDY    49  41  74 S9        30.01R
6HR MIN TEMP:  45; 6HR MAX TEMP:  49;

ELKHART*       CLOUDY    48  39  71 S7        30.01R
GOSHEN         CLOUDY    51  39  63 S10       30.02R
6HR MIN TEMP:  49; 6HR MAX TEMP:  51;

MONTICELLO*    CLOUDY    53  44  71 S6        30.04R
6HR MIN TEMP:  45; 6HR MAX TEMP:  53;

LOGANSPORT*    PTCLDY    48  41  76 S8        30.06R
ROCHESTER*     CLOUDY    52  41  66 S8        30.04R
WARSAW*        PTCLDY    50  39  66 S7        30.04R
ANGOLA*        CLEAR     50  39  66 S9        30.03R
FORT WAYNE     CLOUDY    51  42  71 S12       30.08R
6HR MIN TEMP:  45; 6HR MAX TEMP:  51; 6HR PCP: TRACE;

HUNTINGTON*    CLOUDY    51  43  73 S9        30.06R
6HR MIN TEMP:  41; 6HR MAX TEMP:  51;

PERU/GRISSOM   CLOUDY    51  45  80 S8        30.05R
6HR MIN TEMP:  45; 6HR MAX TEMP:  52;

MARION*        PTCLDY    50  43  75 S14       30.09R
6HR MIN TEMP:  26; 6HR MAX TEMP:  51;


$$
INZ028>050-241300-
CENTRAL INDIANA

CITY           SKY/WX    TMP DP  RH WIND       PRES   REMARKS
LAFAYETTE      CLOUDY    56  46  69 S8        30.04R
6HR MIN TEMP:  50; 6HR MAX TEMP:  56;

KOKOMO*        MOCLDY    48  42  80 S10       30.08R
6HR MIN TEMP:  44; 6HR MAX TEMP:  50;

MUNCIE*        CLOUDY    55  43  63 S10G18    30.10R
6HR MIN TEMP:  54; 6HR MAX TEMP:  56;

INDIANAPOLIS   MOCLDY    54  45  71 S9        30.09R
6HR MIN TEMP:  52; 6HR MAX TEMP:  56;


$$
MIZ043>046-050>051-056>058-064>065-071>073-077>080-241300-
SOUTHWEST LOWER MICHIGAN

CITY           SKY/WX    TMP DP  RH WIND       PRES   REMARKS
BATTLE CREEK   CLOUDY    49  41  74 S12       29.98R
6HR MIN TEMP:  41; 6HR MAX TEMP:  49;

BENTON HARBOR  PTCLDY    53  41  63 S12G21    29.96R
6HR MIN TEMP:  42; 6HR MAX TEMP:  53;

COLDWATER*     MOCLDY    51  40  67 S8G17     30.01R
6HR MIN TEMP:  41; 6HR MAX TEMP:  51;

HILLSDALE*     PTCLDY    45  37  76 S14G23    30.01S
HOLLAND        CLOUDY    54  42  64 SW17G25   29.92S
6HR MIN TEMP:  43; 6HR MAX TEMP:  54;

GRAND RAPIDS   CLOUDY    48  39  71 S6        29.93S
6HR MIN TEMP:  42; 6HR MAX TEMP:  48;

KALAMAZOO      CLOUDY    50  39  66 S15       29.98R
6HR MIN TEMP:  42; 6HR MAX TEMP:  50;

STURGIS*       CLOUDY    49  41  73 S10       30.01R
6HR MIN TEMP:  42; 6HR MAX TEMP:  49;

THREE RIVERS*  FAIR      47  40  74 S12       30.00S

$$
OHZ001>008-015>018-024>025-241300-
NORTHWEST OHIO

CITY           SKY/WX    TMP DP  RH WIND       PRES   REMARKS
WAUSEON*       FAIR      50  41  71 SW15G23   30.04R
DEFIANCE       CLOUDY    50  40  68 S13G22    30.06R
6HR MIN TEMP:  41; 6HR MAX TEMP:  50;

FINDLAY        MOCLDY    54  41  61 S17       30.08R
6HR MIN TEMP:  45; 6HR MAX TEMP:  54;

TOLEDO EXPRESS CLOUDY    51  41  68 SW17G23   30.04R
6HR MIN TEMP:  38; 6HR MAX TEMP:  51; 6HR PCP:  0.11;

TOLEDO METCALF MOCLDY    51  42  71 SW14      30.06R
6HR MIN TEMP:  41; 6HR MAX TEMP:  51; 6HR PCP:  0.11;

LIMA           MOCLDY    53  42  66 S16       30.11R
6HR MIN TEMP:  47; 6HR MAX TEMP:  53;


$$
AND FOR LAKE MICHIGAN COASTAL AND OPEN LAKE BUOY OBSERVATIONS

STATION/POSITION TEMP    WIND        PRES    VSBY  WAVE
                 AIR SEA DIR/SP/G                  HT/PER
                 (F)     (DEG/KT/KT) (MB)    (MI)  (FT/S)
CALUMET HARBOR    54     190/ 13/ 19 1013.1R
MICHIGAN CITY     54     170/ 21/ 25   N/A
BURNS HARBOR      53     190/ 22/ 28 1014.6R

$$
&&




USA.gov is the U.S. government's official web portal to all federal, state and local government web resources and services.